ITY718 LIRF-LGAV

Flight info

Callsign ITY718
Flight time N/A
Altitude 37000
Route PEPIX L50 UNIXO DCT LAMEB DCT RUTOM DCT ARA UY144 NEMES
Aircraft A21N/M-SDE2E3FGHIRWXY/LB1

Departure

Time 2026-05-01 14:26
Airport Rome–Fiumicino Leonardo da Vinci International Airport (LIRF)

Arrival

Time N/A
Airport Athens Eleftherios Venizelos International Airport (LGAV)
Time Latitude Longitude Altitude Speed Heading
2026-05-01 13:55 41.79701 12.25991 17 ft 0 kts 295°
2026-05-01 14:13 41.79694 12.26010 17 ft 4 kts 295°
2026-05-01 14:13 41.79685 12.26036 19 ft 4 kts 308°
2026-05-01 14:14 41.79667 12.26049 18 ft 4 kts 14°
2026-05-01 14:14 41.79657 12.26045 19 ft 4 kts 25°
2026-05-01 14:14 41.79681 12.26061 18 ft 3 kts 25°
2026-05-01 14:14 41.79685 12.26063 17 ft 0 kts 25°
2026-05-01 14:16 41.79691 12.26067 19 ft 2 kts 25°
2026-05-01 14:17 41.79720 12.26085 17 ft 7 kts 24°
2026-05-01 14:17 41.79766 12.26067 18 ft 9 kts 300°
2026-05-01 14:17 41.79800 12.25969 17 ft 14 kts 295°
2026-05-01 14:17 41.79847 12.25835 18 ft 18 kts 295°
2026-05-01 14:18 41.79906 12.25670 18 ft 21 kts 295°
2026-05-01 14:18 41.79973 12.25481 19 ft 23 kts 296°
2026-05-01 14:18 41.80042 12.25282 19 ft 24 kts 295°
2026-05-01 14:18 41.80083 12.25144 17 ft 24 kts 287°
2026-05-01 14:19 41.80107 12.24889 17 ft 20 kts 262°
2026-05-01 14:19 41.80063 12.24707 17 ft 21 kts 250°
2026-05-01 14:19 41.80011 12.24518 16 ft 22 kts 249°
2026-05-01 14:19 41.79957 12.24323 17 ft 23 kts 250°
2026-05-01 14:20 41.79918 12.24120 17 ft 21 kts 270°
2026-05-01 14:20 41.79841 12.23768 17 ft 13 kts 249°
2026-05-01 14:20 41.79795 12.23705 17 ft 10 kts 180°
2026-05-01 14:21 41.79727 12.23730 18 ft 11 kts 162°
2026-05-01 14:21 41.79652 12.23761 17 ft 12 kts 163°
2026-05-01 14:21 41.79570 12.23794 18 ft 13 kts 162°
2026-05-01 14:22 41.79374 12.23877 18 ft 17 kts 163°
2026-05-01 14:22 41.79249 12.23929 18 ft 20 kts 162°
2026-05-01 14:22 41.79111 12.23988 19 ft 22 kts 162°
2026-05-01 14:22 41.78963 12.24050 19 ft 23 kts 163°
2026-05-01 14:23 41.78812 12.24113 20 ft 24 kts 162°
2026-05-01 14:23 41.78652 12.24181 19 ft 25 kts 162°
2026-05-01 14:23 41.78487 12.24249 19 ft 25 kts 163°
2026-05-01 14:23 41.78341 12.24311 19 ft 20 kts 162°
2026-05-01 14:24 41.78245 12.24334 19 ft 11 kts 198°
2026-05-01 14:24 41.78209 12.24240 18 ft 13 kts 256°
2026-05-01 14:24 41.78212 12.24120 17 ft 13 kts 296°
2026-05-01 14:24 41.78250 12.24038 19 ft 9 kts 308°
2026-05-01 14:25 41.78304 12.23997 20 ft 8 kts 344°
2026-05-01 14:25 41.78329 12.23988 20 ft 16 kts 343°
2026-05-01 14:25 41.78666 12.23847 18 ft 84 kts 342°
2026-05-01 14:25 41.79451 12.23516 17 ft 152 kts 342°
2026-05-01 14:26 41.80558 12.23036 355 ft 169 kts 346°
2026-05-01 14:26 41.82584 12.21663 1730 ft 174 kts 312°
2026-05-01 14:26 41.83203 12.20113 2069 ft 205 kts 296°
2026-05-01 14:27 41.83721 12.18169 2573 ft 236 kts 291°
2026-05-01 14:27 41.84251 12.16025 3405 ft 245 kts 291°
2026-05-01 14:27 41.84775 12.13843 4477 ft 248 kts 287°
2026-05-01 14:28 41.84062 12.09224 6261 ft 280 kts 225°
2026-05-01 14:28 41.82399 12.07904 7237 ft 283 kts 192°
2026-05-01 14:28 41.80452 12.07950 8140 ft 284 kts 159°
2026-05-01 14:28 41.78653 12.09042 9076 ft 286 kts 148°
2026-05-01 14:29 41.76888 12.10328 10085 ft 291 kts 147°
2026-05-01 14:29 41.75059 12.11617 10799 ft 307 kts 148°
2026-05-01 14:30 41.68183 12.11736 12301 ft 377 kts 213°
2026-05-01 14:30 41.66122 12.09531 13168 ft 382 kts 222°
2026-05-01 14:30 41.64116 12.07155 14065 ft 388 kts 222°
2026-05-01 14:31 41.59716 12.02785 15486 ft 405 kts 202°
2026-05-01 14:31 41.56961 12.01929 16116 ft 411 kts 181°
2026-05-01 14:31 41.54081 12.01807 16851 ft 416 kts 176°
2026-05-01 14:31 41.51167 12.01820 17592 ft 422 kts 176°
2026-05-01 14:32 41.48208 12.01842 18274 ft 429 kts 176°
2026-05-01 14:32 41.45200 12.01852 18906 ft 435 kts 176°
2026-05-01 14:32 41.42151 12.01850 19508 ft 441 kts 176°
2026-05-01 14:32 41.39107 12.01841 20107 ft 446 kts 176°
2026-05-01 14:33 41.35990 12.01829 20712 ft 451 kts 176°
2026-05-01 14:33 41.32837 12.01887 21332 ft 454 kts 172°
2026-05-01 14:33 41.29761 12.02719 21958 ft 450 kts 153°
2026-05-01 14:33 41.27079 12.04742 22567 ft 441 kts 134°
2026-05-01 14:34 41.24813 12.07457 23236 ft 438 kts 128°
2026-05-01 14:34 41.22639 12.10307 23822 ft 441 kts 128°
2026-05-01 14:34 41.20450 12.13197 24242 ft 446 kts 128°
2026-05-01 14:34 41.18231 12.16107 24646 ft 451 kts 128°
2026-05-01 14:35 41.15986 12.19038 25061 ft 455 kts 128°
2026-05-01 14:35 41.13725 12.22006 25469 ft 459 kts 128°
2026-05-01 14:35 41.11447 12.24998 25858 ft 464 kts 129°
2026-05-01 14:35 41.09127 12.28033 26094 ft 472 kts 130°
2026-05-01 14:36 41.06771 12.31092 26457 ft 477 kts 130°
2026-05-01 14:36 41.04387 12.34169 26850 ft 480 kts 130°
2026-05-01 14:36 41.01981 12.37262 27212 ft 484 kts 131°
2026-05-01 14:36 40.99551 12.40379 27570 ft 488 kts 131°
2026-05-01 14:37 40.97104 12.43513 28027 ft 490 kts 131°
2026-05-01 14:37 40.94649 12.46653 28409 ft 493 kts 131°
2026-05-01 14:37 40.92169 12.49824 28707 ft 497 kts 131°
2026-05-01 14:37 40.89672 12.53016 29013 ft 501 kts 131°
2026-05-01 14:38 40.87157 12.56226 29301 ft 505 kts 132°
2026-05-01 14:38 40.84614 12.59472 29427 ft 512 kts 133°
2026-05-01 14:38 40.82036 12.62756 29709 ft 516 kts 133°
2026-05-01 14:38 40.79483 12.66067 30190 ft 514 kts 129°
2026-05-01 14:39 40.77259 12.69730 30556 ft 510 kts 119°
2026-05-01 14:39 40.75356 12.73665 30835 ft 510 kts 116°
2026-05-01 14:39 40.73545 12.77690 31193 ft 510 kts 115°
2026-05-01 14:39 40.71795 12.81748 31554 ft 509 kts 115°
2026-05-01 14:40 40.70091 12.85764 31866 ft 509 kts 114°
2026-05-01 14:40 40.68366 12.89843 32142 ft 510 kts 114°
2026-05-01 14:40 40.66608 12.93978 32421 ft 511 kts 115°
2026-05-01 14:40 40.64862 12.98059 32699 ft 512 kts 115°
2026-05-01 14:41 40.63101 13.02148 32966 ft 513 kts 115°
2026-05-01 14:41 40.61334 13.06231 33231 ft 514 kts 115°
2026-05-01 14:41 40.59562 13.10313 33465 ft 515 kts 115°
2026-05-01 14:41 40.57774 13.14427 33613 ft 520 kts 115°
2026-05-01 14:42 40.56001 13.18499 33891 ft 520 kts 116°
2026-05-01 14:42 40.54207 13.22610 34209 ft 519 kts 116°
2026-05-01 14:42 40.52408 13.26728 34438 ft 519 kts 116°
2026-05-01 14:42 40.50616 13.30823 34737 ft 516 kts 116°
2026-05-01 14:43 40.48831 13.34899 35080 ft 513 kts 116°
2026-05-01 14:43 40.47056 13.38943 35415 ft 509 kts 117°
2026-05-01 14:43 40.45294 13.42958 35745 ft 506 kts 117°
2026-05-01 14:43 40.43538 13.46952 36039 ft 504 kts 117°
2026-05-01 14:44 40.41791 13.50922 36321 ft 502 kts 117°
2026-05-01 14:44 40.38897 13.57493 36722 ft 499 kts 118°
2026-05-01 14:44 40.37162 13.61424 36950 ft 498 kts 118°
2026-05-01 14:45 40.35429 13.65347 37140 ft 497 kts 118°
2026-05-01 14:45 40.31959 13.73191 37187 ft 497 kts 118°
2026-05-01 14:46 40.28485 13.81021 37186 ft 498 kts 118°
2026-05-01 14:46 40.23246 13.92798 37185 ft 501 kts 119°
2026-05-01 14:47 40.19730 14.00677 37176 ft 501 kts 119°
2026-05-01 14:48 40.14446 14.12479 37172 ft 501 kts 119°
2026-05-01 14:48 40.09148 14.24270 37168 ft 502 kts 120°
2026-05-01 14:49 40.02059 14.39972 37160 ft 502 kts 120°
2026-05-01 14:50 39.94930 14.55683 37142 ft 506 kts 120°
2026-05-01 14:51 39.89542 14.67506 37142 ft 506 kts 120°
2026-05-01 14:52 39.84141 14.79312 37149 ft 506 kts 120°
2026-05-01 14:53 39.78729 14.91097 37143 ft 506 kts 120°
2026-05-01 14:53 39.75135 14.98899 37143 ft 507 kts 120°
2026-05-01 14:54 39.71499 15.06772 37140 ft 508 kts 120°
2026-05-01 14:54 39.67856 15.14642 37133 ft 509 kts 120°
2026-05-01 14:55 39.64207 15.22505 37140 ft 509 kts 121°
2026-05-01 14:55 39.60553 15.30359 37149 ft 509 kts 121°
2026-05-01 14:56 39.56890 15.38211 37126 ft 509 kts 121°
2026-05-01 14:56 39.53222 15.46054 37128 ft 509 kts 121°
2026-05-01 14:57 39.49547 15.53894 37128 ft 509 kts 121°
2026-05-01 14:57 39.44028 15.65630 37118 ft 509 kts 121°
2026-05-01 14:58 39.40352 15.73424 37122 ft 507 kts 121°
2026-05-01 14:58 39.36678 15.81193 37115 ft 507 kts 121°
2026-05-01 14:59 39.32994 15.88964 37114 ft 507 kts 121°
2026-05-01 14:59 39.29307 15.96723 37110 ft 507 kts 121°
2026-05-01 15:00 39.23755 16.08369 37113 ft 509 kts 122°
2026-05-01 15:01 39.20041 16.16136 37108 ft 509 kts 122°
2026-05-01 15:01 39.16324 16.23893 37106 ft 509 kts 122°
2026-05-01 15:02 39.12595 16.31653 37108 ft 509 kts 122°
2026-05-01 15:02 39.08923 16.39362 37100 ft 507 kts 118°
2026-05-01 15:03 39.06443 16.47772 37105 ft 503 kts 106°
2026-05-01 15:03 39.04582 16.56462 37105 ft 504 kts 104°
2026-05-01 15:04 39.02836 16.65204 37109 ft 505 kts 103°
2026-05-01 15:04 39.01076 16.73935 37105 ft 505 kts 104°
2026-05-01 15:05 38.99273 16.82713 37111 ft 510 kts 104°
2026-05-01 15:05 38.97444 16.91528 37119 ft 510 kts 104°
2026-05-01 15:06 38.95610 17.00323 37122 ft 509 kts 104°
2026-05-01 15:06 38.93771 17.09110 37132 ft 510 kts 105°
2026-05-01 15:07 38.91919 17.17926 37124 ft 512 kts 105°
2026-05-01 15:07 38.90058 17.26751 37124 ft 512 kts 105°
2026-05-01 15:08 38.88192 17.35566 37121 ft 512 kts 105°
2026-05-01 15:08 38.86317 17.44384 37114 ft 513 kts 105°
2026-05-01 15:09 38.84427 17.53234 37104 ft 516 kts 105°
2026-05-01 15:09 38.82524 17.62113 37105 ft 516 kts 105°
2026-05-01 15:10 38.80617 17.70977 37096 ft 516 kts 105°
2026-05-01 15:10 38.77752 17.84220 37098 ft 517 kts 106°
2026-05-01 15:11 38.74852 17.97546 37094 ft 518 kts 106°
2026-05-01 15:12 38.72911 18.06422 37088 ft 518 kts 106°
2026-05-01 15:12 38.69986 18.19729 37085 ft 518 kts 106°
2026-05-01 15:14 38.65080 18.41873 37084 ft 517 kts 106°
2026-05-01 15:14 38.62111 18.55165 37074 ft 519 kts 107°
2026-05-01 15:15 38.58125 18.72893 37064 ft 519 kts 107°
2026-05-01 15:16 38.54108 18.90619 37059 ft 520 kts 107°
2026-05-01 15:18 38.50132 19.13068 37047 ft 521 kts 100°
2026-05-01 15:19 38.47623 19.31363 37045 ft 524 kts 100°
2026-05-01 15:19 38.45704 19.45096 37037 ft 524 kts 100°
2026-05-01 15:20 38.43758 19.58834 37032 ft 525 kts 100°
2026-05-01 15:21 38.42450 19.68000 37031 ft 525 kts 100°
2026-05-01 15:21 38.41136 19.77162 37028 ft 525 kts 100°
2026-05-01 15:22 38.39149 19.90907 37032 ft 526 kts 101°
2026-05-01 15:22 38.37813 20.00086 37025 ft 527 kts 101°
2026-05-01 15:23 38.36470 20.09262 37032 ft 527 kts 101°
2026-05-01 15:23 38.35121 20.18430 37025 ft 527 kts 101°
2026-05-01 15:24 38.33762 20.27608 37032 ft 527 kts 101°
2026-05-01 15:24 38.32404 20.36731 37024 ft 528 kts 101°
2026-05-01 15:25 38.31030 20.45906 37023 ft 527 kts 101°
2026-05-01 15:25 38.29650 20.55073 37017 ft 527 kts 101°
2026-05-01 15:26 38.28264 20.64236 37042 ft 527 kts 101°
2026-05-01 15:26 38.26868 20.73407 37035 ft 528 kts 101°
2026-05-01 15:27 38.25463 20.82581 37034 ft 528 kts 102°
2026-05-01 15:28 38.23340 20.96356 37037 ft 529 kts 102°
2026-05-01 15:28 38.21914 21.05550 37046 ft 530 kts 102°
2026-05-01 15:29 38.19764 21.19326 37050 ft 530 kts 102°
2026-05-01 15:30 38.17111 21.36151 37039 ft 530 kts 102°
2026-05-01 15:31 38.11578 21.54894 36471 ft 519 kts 120°
2026-05-01 15:31 38.08358 21.63008 35492 ft 510 kts 121°
2026-05-01 15:32 38.05198 21.70978 34252 ft 503 kts 121°
2026-05-01 15:32 38.01987 21.79128 31573 ft 532 kts 121°
2026-05-01 15:33 37.96964 21.92030 28598 ft 550 kts 120°
2026-05-01 15:34 37.92440 22.03592 26246 ft 545 kts 120°